Sibay, Russia
Current Conditions -  °F | °C
As of 10:00 PM on Saturday 25 Oct 2014 (Local Time) from USCM Reporting Station
Scattered Clouds Scattered Clouds  
Wind Chill:   Ceiling: Unl
Heat Index: 10°   Visibility: 5mi
Dew Point:   Wind: 7mph
Humidity: 73%   Direction: 350°N
Pressure: 30"   Gusts: NA
Location:  52.7°N, 58.65°E
Report Text: USCM 251700Z 35003MPS 8000 SCT030 M12/M16 Q1016 NOSIG 01090065RMK QFE723
Loading
Personal Weather Stations






























Interactive Weather Map
Tropical Storm Tracking
New forecast layout! Learn more

10-Day Weather Forecast

Advertisements
Track Severe Weather on mobile